Year,Month,Day,Hour,Minute,Value (Times are PST for temperature in C)
2009,08,16,00,00,12.50
2009,08,16,00,01,12.50
2009,08,16,00,02,12.50
2009,08,16,00,03,12.50
2009,08,16,00,04,12.50
2009,08,16,00,05,12.40
2009,08,16,00,06,12.40
2009,08,16,00,07,12.40
2009,08,16,00,08,12.40
2009,08,16,00,09,12.40
2009,08,16,00,10,12.40
2009,08,16,00,11,12.40
2009,08,16,00,12,12.30
2009,08,16,00,13,12.30
2009,08,16,00,14,12.30
2009,08,16,00,15,12.30
2009,08,16,00,16,12.30
2009,08,16,00,17,12.30
2009,08,16,00,18,12.30
2009,08,16,00,19,12.30
2009,08,16,00,20,12.30
2009,08,16,00,21,12.20
2009,08,16,00,22,12.20
2009,08,16,00,23,12.20
2009,08,16,00,24,12.20
2009,08,16,00,25,12.20
2009,08,16,00,26,12.20
2009,08,16,00,27,12.20
2009,08,16,00,28,12.20
2009,08,16,00,29,12.20
2009,08,16,00,30,12.20
2009,08,16,00,31,12.10
2009,08,16,00,32,12.10
2009,08,16,00,33,12.10
2009,08,16,00,34,12.10
2009,08,16,00,35,12.10
2009,08,16,00,36,12.10
2009,08,16,00,37,12.10
2009,08,16,00,38,12.10
2009,08,16,00,39,12.10
2009,08,16,00,40,12.10
2009,08,16,00,41,12.10
2009,08,16,00,42,12.10
2009,08,16,00,43,12.00
2009,08,16,00,44,12.00
2009,08,16,00,45,12.00
2009,08,16,00,46,12.00
2009,08,16,00,47,12.00
2009,08,16,00,48,12.00
2009,08,16,00,49,12.00
2009,08,16,00,50,12.00
2009,08,16,00,51,12.00
2009,08,16,00,52,12.00
2009,08,16,00,53,11.90
2009,08,16,00,54,11.90
2009,08,16,00,55,11.90
2009,08,16,00,56,11.90
2009,08,16,00,57,11.90
2009,08,16,00,58,11.90
2009,08,16,00,59,11.90
2009,08,16,01,00,11.90
2009,08,16,01,01,11.90
2009,08,16,01,02,11.90
2009,08,16,01,03,11.90
2009,08,16,01,04,11.90
2009,08,16,01,05,11.90
2009,08,16,01,06,11.90
2009,08,16,01,07,11.90
2009,08,16,01,08,11.90
2009,08,16,01,09,11.90
2009,08,16,01,10,11.80
2009,08,16,01,11,11.80
2009,08,16,01,12,11.80
2009,08,16,01,13,11.80
2009,08,16,01,14,11.80
2009,08,16,01,15,11.80
2009,08,16,01,16,11.80
2009,08,16,01,17,11.80
2009,08,16,01,18,11.80
2009,08,16,01,19,11.80
2009,08,16,01,20,11.80
2009,08,16,01,21,11.80
2009,08,16,01,22,11.80
2009,08,16,01,23,11.80
2009,08,16,01,24,11.80
2009,08,16,01,25,11.80
2009,08,16,01,26,11.80
2009,08,16,01,27,11.80
2009,08,16,01,28,11.80
2009,08,16,01,29,11.80
2009,08,16,01,30,11.80
2009,08,16,01,31,11.80
2009,08,16,01,32,11.80
2009,08,16,01,33,11.80
2009,08,16,01,34,11.70
2009,08,16,01,35,11.70
2009,08,16,01,36,11.70
2009,08,16,01,37,11.70
2009,08,16,01,38,11.70
2009,08,16,01,39,11.70
2009,08,16,01,40,11.70
2009,08,16,01,41,11.70
2009,08,16,01,42,11.70
2009,08,16,01,43,11.70
2009,08,16,01,44,11.70
2009,08,16,01,45,11.70
2009,08,16,01,46,11.70
2009,08,16,01,47,11.70
2009,08,16,01,48,11.60
2009,08,16,01,49,11.60
2009,08,16,01,50,11.60
2009,08,16,01,51,11.60
2009,08,16,01,52,11.60
2009,08,16,01,53,11.60
2009,08,16,01,54,11.60
2009,08,16,01,55,11.60
2009,08,16,01,56,11.60
2009,08,16,01,57,11.60
2009,08,16,01,58,11.60
2009,08,16,01,59,11.50
2009,08,16,02,00,11.50
2009,08,16,02,01,11.50
2009,08,16,02,02,11.50
2009,08,16,02,03,11.50
2009,08,16,02,04,11.50
2009,08,16,02,05,11.50
2009,08,16,02,06,11.50
2009,08,16,02,07,11.40
2009,08,16,02,08,11.40
2009,08,16,02,09,11.40
2009,08,16,02,10,11.40
2009,08,16,02,11,11.40
2009,08,16,02,12,11.40
2009,08,16,02,13,11.40
2009,08,16,02,14,11.40
2009,08,16,02,15,11.40
2009,08,16,02,16,11.40
2009,08,16,02,17,11.40
2009,08,16,02,18,11.40
2009,08,16,02,19,11.40
2009,08,16,02,20,11.40
2009,08,16,02,21,11.40
2009,08,16,02,22,11.40
2009,08,16,02,23,11.30
2009,08,16,02,24,11.30
2009,08,16,02,25,11.30
2009,08,16,02,26,11.30
2009,08,16,02,27,11.30
2009,08,16,02,28,11.30
2009,08,16,02,29,11.30
2009,08,16,02,30,11.30
2009,08,16,02,31,11.30
2009,08,16,02,32,11.30
2009,08,16,02,33,11.30
2009,08,16,02,34,11.30
2009,08,16,02,35,11.30
2009,08,16,02,36,11.20
2009,08,16,02,37,11.20
2009,08,16,02,38,11.20
2009,08,16,02,39,11.20
2009,08,16,02,40,11.20
2009,08,16,02,41,11.20
2009,08,16,02,42,11.20
2009,08,16,02,43,11.20
2009,08,16,02,44,11.20
2009,08,16,02,45,11.20
2009,08,16,02,46,11.20
2009,08,16,02,47,11.20
2009,08,16,02,48,11.10
2009,08,16,02,49,11.10
2009,08,16,02,50,11.10
2009,08,16,02,51,11.10
2009,08,16,02,52,11.10
2009,08,16,02,53,11.10
2009,08,16,02,54,11.10
2009,08,16,02,55,11.10
2009,08,16,02,56,11.10
2009,08,16,02,57,11.10
2009,08,16,02,58,11.10
2009,08,16,02,59,11.10
2009,08,16,03,00,11.10
2009,08,16,03,01,11.10
2009,08,16,03,02,11.10
2009,08,16,03,03,11.10
2009,08,16,03,04,11.10
2009,08,16,03,05,11.10
2009,08,16,03,06,11.10
2009,08,16,03,07,11.10
2009,08,16,03,08,11.10
2009,08,16,03,09,11.10
2009,08,16,03,10,11.10
2009,08,16,03,11,11.10
2009,08,16,03,12,11.00
2009,08,16,03,13,11.00
2009,08,16,03,14,11.00
2009,08,16,03,15,11.00
2009,08,16,03,16,11.00
2009,08,16,03,17,11.00
2009,08,16,03,18,11.00
2009,08,16,03,19,11.00
2009,08,16,03,20,11.00
2009,08,16,03,21,11.00
2009,08,16,03,22,11.00
2009,08,16,03,23,11.00
2009,08,16,03,24,10.90
2009,08,16,03,25,10.90
2009,08,16,03,26,10.90
2009,08,16,03,27,10.90
2009,08,16,03,28,10.90
2009,08,16,03,29,10.90
2009,08,16,03,30,10.90
2009,08,16,03,31,10.90
2009,08,16,03,32,10.90
2009,08,16,03,33,10.90
2009,08,16,03,34,10.90
2009,08,16,03,35,10.90
2009,08,16,03,36,10.90
2009,08,16,03,37,10.90
2009,08,16,03,38,10.90
2009,08,16,03,39,10.90
2009,08,16,03,40,10.90
2009,08,16,03,41,10.80
2009,08,16,03,42,10.80
2009,08,16,03,43,10.80
2009,08,16,03,44,10.80
2009,08,16,03,45,10.80
2009,08,16,03,46,10.80
2009,08,16,03,47,10.80
2009,08,16,03,48,10.80
2009,08,16,03,49,10.80
2009,08,16,03,50,10.80
2009,08,16,03,51,10.80
2009,08,16,03,52,10.80
2009,08,16,03,53,10.80
2009,08,16,03,54,10.80
2009,08,16,03,55,10.80
2009,08,16,03,56,10.80
2009,08,16,03,57,10.80
2009,08,16,03,58,10.80
2009,08,16,03,59,10.80
2009,08,16,04,00,10.80
2009,08,16,04,01,10.80
2009,08,16,04,02,10.80
2009,08,16,04,03,10.80
2009,08,16,04,04,10.80
2009,08,16,04,05,10.80
2009,08,16,04,06,10.80
2009,08,16,04,07,10.80
2009,08,16,04,08,10.80
2009,08,16,04,09,10.80
2009,08,16,04,10,10.80
2009,08,16,04,11,10.80
2009,08,16,04,12,10.80
2009,08,16,04,13,10.80
2009,08,16,04,14,10.80
2009,08,16,04,15,10.80
2009,08,16,04,16,10.80
2009,08,16,04,17,10.80
2009,08,16,04,18,10.80
2009,08,16,04,19,10.70
2009,08,16,04,20,10.70
2009,08,16,04,21,10.70
2009,08,16,04,22,10.70
2009,08,16,04,23,10.70
2009,08,16,04,24,10.70
2009,08,16,04,25,10.70
2009,08,16,04,26,10.70
2009,08,16,04,27,10.70
2009,08,16,04,28,10.70
2009,08,16,04,29,10.70
2009,08,16,04,30,10.70
2009,08,16,04,31,10.70
2009,08,16,04,32,10.70
2009,08,16,04,33,10.70
2009,08,16,04,34,10.70
2009,08,16,04,35,10.70
2009,08,16,04,36,10.70
2009,08,16,04,37,10.70
2009,08,16,04,38,10.70
2009,08,16,04,39,10.70
2009,08,16,04,40,10.70
2009,08,16,04,41,10.70
2009,08,16,04,42,10.70
2009,08,16,04,43,10.70
2009,08,16,04,44,10.70
2009,08,16,04,45,10.70
2009,08,16,04,46,10.70
2009,08,16,04,47,10.60
2009,08,16,04,48,10.60
2009,08,16,04,49,10.60
2009,08,16,04,50,10.60
2009,08,16,04,51,10.60
2009,08,16,04,52,10.60
2009,08,16,04,53,10.60
2009,08,16,04,54,10.60
2009,08,16,04,55,10.60
2009,08,16,04,56,10.60
2009,08,16,04,57,10.60
2009,08,16,04,58,10.60
2009,08,16,04,59,10.60
2009,08,16,05,00,10.60
2009,08,16,05,01,10.60
2009,08,16,05,02,10.60
2009,08,16,05,03,10.60
2009,08,16,05,04,10.60
2009,08,16,05,05,10.60
2009,08,16,05,06,10.60
2009,08,16,05,07,10.50
2009,08,16,05,08,10.50
2009,08,16,05,09,10.50
2009,08,16,05,10,10.50
2009,08,16,05,11,10.50
2009,08,16,05,12,10.50
2009,08,16,05,13,10.50
2009,08,16,05,14,10.50
2009,08,16,05,15,10.40
2009,08,16,05,16,10.40
2009,08,16,05,17,10.40
2009,08,16,05,18,10.40
2009,08,16,05,19,10.40
2009,08,16,05,20,10.40
2009,08,16,05,21,10.40
2009,08,16,05,22,10.40
2009,08,16,05,23,10.40
2009,08,16,05,24,10.40
2009,08,16,05,25,10.40
2009,08,16,05,26,10.40
2009,08,16,05,27,10.40
2009,08,16,05,28,10.30
2009,08,16,05,29,10.30
2009,08,16,05,30,10.30
2009,08,16,05,31,10.30
2009,08,16,05,32,10.30
2009,08,16,05,33,10.30
2009,08,16,05,34,10.30
2009,08,16,05,35,10.30
2009,08,16,05,36,10.30
2009,08,16,05,37,10.30
2009,08,16,05,38,10.30
2009,08,16,05,39,10.30
2009,08,16,05,40,10.30
2009,08,16,05,41,10.30
2009,08,16,05,42,10.30
2009,08,16,05,43,10.30
2009,08,16,05,44,10.30
2009,08,16,05,45,10.30
2009,08,16,05,46,10.30
2009,08,16,05,47,10.30
2009,08,16,05,48,10.30
2009,08,16,05,49,10.30
2009,08,16,05,50,10.20
2009,08,16,05,51,10.20
2009,08,16,05,52,10.20
2009,08,16,05,53,10.20
2009,08,16,05,54,10.20
2009,08,16,05,55,10.20
2009,08,16,05,56,10.20
2009,08,16,05,57,10.20
2009,08,16,05,58,10.20
2009,08,16,05,59,10.20
2009,08,16,06,00,10.20
2009,08,16,06,01,10.20
2009,08,16,06,02,10.20
2009,08,16,06,03,10.20
2009,08,16,06,04,10.20
2009,08,16,06,05,10.20
2009,08,16,06,06,10.20
2009,08,16,06,07,10.20
2009,08,16,06,08,10.20
2009,08,16,06,09,10.20
2009,08,16,06,10,10.20
2009,08,16,06,11,10.20
2009,08,16,06,12,10.20
2009,08,16,06,13,10.20
2009,08,16,06,14,10.20
2009,08,16,06,15,10.20
2009,08,16,06,16,10.20
2009,08,16,06,17,10.20
2009,08,16,06,18,10.20
2009,08,16,06,19,10.20
2009,08,16,06,20,10.20
2009,08,16,06,21,10.20
2009,08,16,06,22,10.20
2009,08,16,06,23,10.20
2009,08,16,06,24,10.20
2009,08,16,06,25,10.20
2009,08,16,06,26,10.20
2009,08,16,06,27,10.20
2009,08,16,06,28,10.20
2009,08,16,06,29,10.20
2009,08,16,06,30,10.20
2009,08,16,06,31,10.20
2009,08,16,06,32,10.20
2009,08,16,06,33,10.20
2009,08,16,06,34,10.20
2009,08,16,06,35,10.20
2009,08,16,06,36,10.20
2009,08,16,06,37,10.20
2009,08,16,06,38,10.20
2009,08,16,06,39,10.20
2009,08,16,06,40,10.20
2009,08,16,06,41,10.20
2009,08,16,06,42,10.20
2009,08,16,06,43,10.20
2009,08,16,06,44,10.20
2009,08,16,06,45,10.20
2009,08,16,06,46,10.20
2009,08,16,06,47,10.20
2009,08,16,06,48,10.20
2009,08,16,06,49,10.20
2009,08,16,06,50,10.20
2009,08,16,06,51,10.20
2009,08,16,06,52,10.20
2009,08,16,06,53,10.20
2009,08,16,06,54,10.20
2009,08,16,06,55,10.20
2009,08,16,06,56,10.20
2009,08,16,06,57,10.20
2009,08,16,06,58,10.30
2009,08,16,06,59,10.30
2009,08,16,07,00,10.30
2009,08,16,07,01,10.30
2009,08,16,07,02,10.30
2009,08,16,07,03,10.30
2009,08,16,07,04,10.30
2009,08,16,07,05,10.30
2009,08,16,07,06,10.30
2009,08,16,07,07,10.30
2009,08,16,07,08,10.30
2009,08,16,07,09,10.30
2009,08,16,07,10,10.30
2009,08,16,07,11,10.30
2009,08,16,07,12,10.40
2009,08,16,07,13,10.40
2009,08,16,07,14,10.40
2009,08,16,07,15,10.40
2009,08,16,07,16,10.40
2009,08,16,07,17,10.40
2009,08,16,07,18,10.40
2009,08,16,07,19,10.40
2009,08,16,07,20,10.40
2009,08,16,07,21,10.40
2009,08,16,07,22,10.40
2009,08,16,07,23,10.40
2009,08,16,07,24,10.40
2009,08,16,07,25,10.40
2009,08,16,07,26,10.40
2009,08,16,07,27,10.40
2009,08,16,07,28,10.40
2009,08,16,07,29,10.40
2009,08,16,07,30,10.40
2009,08,16,07,31,10.50
2009,08,16,07,32,10.50
2009,08,16,07,33,10.50
2009,08,16,07,34,10.50
2009,08,16,07,35,10.50
2009,08,16,07,36,10.50
2009,08,16,07,37,10.50
2009,08,16,07,38,10.50
2009,08,16,07,39,10.60
2009,08,16,07,40,10.60
2009,08,16,07,41,10.60
2009,08,16,07,42,10.60
2009,08,16,07,43,10.60
2009,08,16,07,44,10.60
2009,08,16,07,45,10.60
2009,08,16,07,46,10.60
2009,08,16,07,47,10.70
2009,08,16,07,48,10.70
2009,08,16,07,49,10.70
2009,08,16,07,50,10.70
2009,08,16,07,51,10.70
2009,08,16,07,52,10.70
2009,08,16,07,53,10.70
2009,08,16,07,54,10.70
2009,08,16,07,55,10.80
2009,08,16,07,56,10.80
2009,08,16,07,57,10.80
2009,08,16,07,58,10.80
2009,08,16,07,59,10.80
2009,08,16,08,00,10.80
2009,08,16,08,01,10.90
2009,08,16,08,02,10.90
2009,08,16,08,03,10.90
2009,08,16,08,04,10.90
2009,08,16,08,05,11.00
2009,08,16,08,06,11.00
2009,08,16,08,07,11.10
2009,08,16,08,08,11.10
2009,08,16,08,09,11.10
2009,08,16,08,10,11.10
2009,08,16,08,11,11.10
2009,08,16,08,12,11.20
2009,08,16,08,13,11.20
2009,08,16,08,14,11.20
2009,08,16,08,15,11.20
2009,08,16,08,16,11.20
2009,08,16,08,17,11.30
2009,08,16,08,18,11.30
2009,08,16,08,19,11.30
2009,08,16,08,20,11.40
2009,08,16,08,21,11.40
2009,08,16,08,22,11.40
2009,08,16,08,23,11.40
2009,08,16,08,24,11.40
2009,08,16,08,25,11.50
2009,08,16,08,26,11.60
2009,08,16,08,27,11.60
2009,08,16,08,28,11.60
2009,08,16,08,29,11.70
2009,08,16,08,30,11.70
2009,08,16,08,31,11.70
2009,08,16,08,32,11.70
2009,08,16,08,33,11.80
2009,08,16,08,34,11.80
2009,08,16,08,35,11.80
2009,08,16,08,36,11.90
2009,08,16,08,37,11.90
2009,08,16,08,38,11.90
2009,08,16,08,39,12.00
2009,08,16,08,40,12.00
2009,08,16,08,41,12.10
2009,08,16,08,42,12.10
2009,08,16,08,43,12.10
2009,08,16,08,44,12.10
2009,08,16,08,45,12.10
2009,08,16,08,46,12.20
2009,08,16,08,47,12.20
2009,08,16,08,48,12.20
2009,08,16,08,49,12.20
2009,08,16,08,50,12.30
2009,08,16,08,51,12.30
2009,08,16,08,52,12.30
2009,08,16,08,53,12.30
2009,08,16,08,54,12.30
2009,08,16,08,55,12.30
2009,08,16,08,56,12.30
2009,08,16,08,57,12.40
2009,08,16,08,58,12.40
2009,08,16,08,59,12.40
2009,08,16,09,00,12.40
2009,08,16,09,01,12.40
2009,08,16,09,02,12.40
2009,08,16,09,03,12.40
2009,08,16,09,04,12.40
2009,08,16,09,05,12.40
2009,08,16,09,06,12.40
2009,08,16,09,07,12.50
2009,08,16,09,08,12.50
2009,08,16,09,09,12.50
2009,08,16,09,10,12.60
2009,08,16,09,11,12.60
2009,08,16,09,12,12.70
2009,08,16,09,13,12.70
2009,08,16,09,14,12.70
2009,08,16,09,15,12.70
2009,08,16,09,16,12.70
2009,08,16,09,17,12.80
2009,08,16,09,18,12.80
2009,08,16,09,19,12.80
2009,08,16,09,20,12.90
2009,08,16,09,21,12.90
2009,08,16,09,22,12.90
2009,08,16,09,23,13.00
2009,08,16,09,24,13.00
2009,08,16,09,25,13.10
2009,08,16,09,26,13.10
2009,08,16,09,27,13.20
2009,08,16,09,28,13.20
2009,08,16,09,29,13.30
2009,08,16,09,30,13.30
2009,08,16,09,31,13.30
2009,08,16,09,32,13.40
2009,08,16,09,33,13.40
2009,08,16,09,34,13.40
2009,08,16,09,35,13.50
2009,08,16,09,36,13.50
2009,08,16,09,37,13.50
2009,08,16,09,38,13.60
2009,08,16,09,39,13.60
2009,08,16,09,40,13.70
2009,08,16,09,41,13.70
2009,08,16,09,42,13.70
2009,08,16,09,43,13.70
2009,08,16,09,44,13.80
2009,08,16,09,45,13.80
2009,08,16,09,46,13.80
2009,08,16,09,47,13.90
2009,08,16,09,48,13.90
2009,08,16,09,49,14.00
2009,08,16,09,50,14.00
2009,08,16,09,51,14.10
2009,08,16,09,52,14.10
2009,08,16,09,53,14.20
2009,08,16,09,54,14.20
2009,08,16,09,55,14.20
2009,08,16,09,56,14.30
2009,08,16,09,57,14.30
2009,08,16,09,58,14.40
2009,08,16,09,59,14.40
2009,08,16,10,00,14.50
2009,08,16,10,01,14.50
2009,08,16,10,02,14.60
2009,08,16,10,03,14.60
2009,08,16,10,04,14.70
2009,08,16,10,05,14.80
2009,08,16,10,06,15.00
2009,08,16,10,07,15.00
2009,08,16,10,08,15.00
2009,08,16,10,09,15.00
2009,08,16,10,10,15.00
2009,08,16,10,11,15.10
2009,08,16,10,12,15.20
2009,08,16,10,13,15.20
2009,08,16,10,14,15.20
2009,08,16,10,15,15.30
2009,08,16,10,16,15.30
2009,08,16,10,17,15.40
2009,08,16,10,18,15.40
2009,08,16,10,19,15.40
2009,08,16,10,20,15.50
2009,08,16,10,21,15.50
2009,08,16,10,22,15.60
2009,08,16,10,23,15.70
2009,08,16,10,24,15.70
2009,08,16,10,25,15.70
2009,08,16,10,26,15.80
2009,08,16,10,27,15.90
2009,08,16,10,28,16.00
2009,08,16,10,29,16.10
2009,08,16,10,30,16.20
2009,08,16,10,31,16.20
2009,08,16,10,32,16.30
2009,08,16,10,33,16.30
2009,08,16,10,34,16.40
2009,08,16,10,35,16.40
2009,08,16,10,36,16.40
2009,08,16,10,37,16.40
2009,08,16,10,38,16.50
2009,08,16,10,39,16.50
2009,08,16,10,40,16.60
2009,08,16,10,41,16.60
2009,08,16,10,42,16.70
2009,08,16,10,43,16.70
2009,08,16,10,44,16.70
2009,08,16,10,45,16.70
2009,08,16,10,46,16.80
2009,08,16,10,47,16.80
2009,08,16,10,48,16.80
2009,08,16,10,49,16.80
2009,08,16,10,50,16.90
2009,08,16,10,51,16.90
2009,08,16,10,52,17.00
2009,08,16,10,53,17.00
2009,08,16,10,54,17.10
2009,08,16,10,55,17.20
2009,08,16,10,56,17.30
2009,08,16,10,57,17.30
2009,08,16,10,58,17.40
2009,08,16,10,59,17.50
2009,08,16,11,00,17.60
2009,08,16,11,01,17.70
2009,08,16,11,02,17.70
2009,08,16,11,03,17.80
2009,08,16,11,04,17.80
2009,08,16,11,05,17.90
2009,08,16,11,06,18.00
2009,08,16,11,07,18.00
2009,08,16,11,08,18.10
2009,08,16,11,09,18.20
2009,08,16,11,10,18.20
2009,08,16,11,11,18.20
2009,08,16,11,12,18.30
2009,08,16,11,13,18.30
2009,08,16,11,14,18.40
2009,08,16,11,15,18.40
2009,08,16,11,16,18.50
2009,08,16,11,17,18.50
2009,08,16,11,18,18.60
2009,08,16,11,19,18.60
2009,08,16,11,20,18.60
2009,08,16,11,21,18.70
2009,08,16,11,22,18.70
2009,08,16,11,23,18.80
2009,08,16,11,24,18.80
2009,08,16,11,25,18.90
2009,08,16,11,26,19.00
2009,08,16,11,27,19.00
2009,08,16,11,28,19.10
2009,08,16,11,29,19.10
2009,08,16,11,30,19.20
2009,08,16,11,31,19.20
2009,08,16,11,32,19.30
2009,08,16,11,33,19.30
2009,08,16,11,34,19.30
2009,08,16,11,35,19.30
2009,08,16,11,36,19.40
2009,08,16,11,37,19.40
2009,08,16,11,38,19.50
2009,08,16,11,39,19.60
2009,08,16,11,40,19.60
2009,08,16,11,41,19.70
2009,08,16,11,42,19.80
2009,08,16,11,43,19.90
2009,08,16,11,44,19.90
2009,08,16,11,45,20.00
2009,08,16,11,46,20.00
2009,08,16,11,47,20.10
2009,08,16,11,48,20.10
2009,08,16,11,49,20.20
2009,08,16,11,50,20.30
2009,08,16,11,51,20.30
2009,08,16,11,52,20.40
2009,08,16,11,53,20.50
2009,08,16,11,54,20.60
2009,08,16,11,55,20.60
2009,08,16,11,56,20.60
2009,08,16,11,57,20.60
2009,08,16,11,58,20.60
2009,08,16,11,59,20.60
2009,08,16,12,00,20.60
2009,08,16,12,01,20.60
2009,08,16,12,02,20.70
2009,08,16,12,03,20.80
2009,08,16,12,04,20.80
2009,08,16,12,05,20.90
2009,08,16,12,06,21.00
2009,08,16,12,07,21.00
2009,08,16,12,08,21.10
2009,08,16,12,09,21.10
2009,08,16,12,10,21.20
2009,08,16,12,11,21.20
2009,08,16,12,12,21.20
2009,08,16,12,13,21.20
2009,08,16,12,14,21.20
2009,08,16,12,15,21.20
2009,08,16,12,16,21.20
2009,08,16,12,17,21.20
2009,08,16,12,18,21.30
2009,08,16,12,19,21.30
2009,08,16,12,20,21.40
2009,08,16,12,21,21.40
2009,08,16,12,22,21.50
2009,08,16,12,23,21.60
2009,08,16,12,24,21.60
2009,08,16,12,25,21.60
2009,08,16,12,26,21.70
2009,08,16,12,27,21.70
2009,08,16,12,28,21.60
2009,08,16,12,29,21.60
2009,08,16,12,30,21.60
2009,08,16,12,31,21.60
2009,08,16,12,32,21.60
2009,08,16,12,33,21.60
2009,08,16,12,34,21.60
2009,08,16,12,35,21.70
2009,08,16,12,36,21.70
2009,08,16,12,37,21.70
2009,08,16,12,38,21.70
2009,08,16,12,39,21.70
2009,08,16,12,40,21.80
2009,08,16,12,41,21.80
2009,08,16,12,42,21.80
2009,08,16,12,43,21.80
2009,08,16,12,44,21.90
2009,08,16,12,45,21.90
2009,08,16,12,46,22.00
2009,08,16,12,47,21.90
2009,08,16,12,48,21.90
2009,08,16,12,49,21.90
2009,08,16,12,50,21.90
2009,08,16,12,51,21.90
2009,08,16,12,52,21.80
2009,08,16,12,53,21.80
2009,08,16,12,54,21.80
2009,08,16,12,55,21.70
2009,08,16,12,56,21.70
2009,08,16,12,57,21.70
2009,08,16,12,58,21.60
2009,08,16,12,59,21.60
2009,08,16,13,00,21.50
2009,08,16,13,01,21.50
2009,08,16,13,02,21.40
2009,08,16,13,03,21.40
2009,08,16,13,04,21.40
2009,08,16,13,05,21.40
2009,08,16,13,06,21.40
2009,08,16,13,07,21.40
2009,08,16,13,08,21.50
2009,08,16,13,09,21.50
2009,08,16,13,10,21.50
2009,08,16,13,11,21.60
2009,08,16,13,12,21.60
2009,08,16,13,13,21.60
2009,08,16,13,14,21.70
2009,08,16,13,15,21.70
2009,08,16,13,16,21.70
2009,08,16,13,17,21.80
2009,08,16,13,18,21.80
2009,08,16,13,19,21.80
2009,08,16,13,20,21.90
2009,08,16,13,21,21.90
2009,08,16,13,22,21.90
2009,08,16,13,23,22.00
2009,08,16,13,24,22.00
2009,08,16,13,25,22.10
2009,08,16,13,26,22.10
2009,08,16,13,27,22.20
2009,08,16,13,28,22.20
2009,08,16,13,29,22.20
2009,08,16,13,30,22.30
2009,08,16,13,31,22.30
2009,08,16,13,32,22.40
2009,08,16,13,33,22.40
2009,08,16,13,34,22.50
2009,08,16,13,35,22.50
2009,08,16,13,36,22.60
2009,08,16,13,37,22.60
2009,08,16,13,38,22.70
2009,08,16,13,39,22.80
2009,08,16,13,40,22.90
2009,08,16,13,41,23.00
2009,08,16,13,42,23.00
2009,08,16,13,43,23.00
2009,08,16,13,44,23.10
2009,08,16,13,45,23.10
2009,08,16,13,46,23.20
2009,08,16,13,47,23.20
2009,08,16,13,48,23.30
2009,08,16,13,49,23.40
2009,08,16,13,50,23.50
2009,08,16,13,51,23.60
2009,08,16,13,52,23.70
2009,08,16,13,53,23.70
2009,08,16,13,54,23.80
2009,08,16,13,55,23.80
2009,08,16,13,56,23.70
2009,08,16,13,57,23.70
2009,08,16,13,58,23.60
2009,08,16,13,59,23.60
2009,08,16,14,00,23.60
2009,08,16,14,01,23.60
2009,08,16,14,02,23.60
2009,08,16,14,03,23.60
2009,08,16,14,04,23.60
2009,08,16,14,05,23.60
2009,08,16,14,06,23.60
2009,08,16,14,07,23.70
2009,08,16,14,08,23.70
2009,08,16,14,09,23.80
2009,08,16,14,10,23.80
2009,08,16,14,11,23.80
2009,08,16,14,12,23.70
2009,08,16,14,13,23.60
2009,08,16,14,14,23.70
2009,08,16,14,15,23.70
2009,08,16,14,16,23.80
2009,08,16,14,17,23.80
2009,08,16,14,18,23.90
2009,08,16,14,19,24.10
2009,08,16,14,20,24.20
2009,08,16,14,21,24.30
2009,08,16,14,22,24.40
2009,08,16,14,23,24.60
2009,08,16,14,24,24.70
2009,08,16,14,25,24.80
2009,08,16,14,26,24.90
2009,08,16,14,27,25.00
2009,08,16,14,28,25.10
2009,08,16,14,29,25.20
2009,08,16,14,30,25.30
2009,08,16,14,31,25.30
2009,08,16,14,32,25.40
2009,08,16,14,33,25.50
2009,08,16,14,34,25.50
2009,08,16,14,35,25.50
2009,08,16,14,36,25.50
2009,08,16,14,37,25.60
2009,08,16,14,38,25.60
2009,08,16,14,39,25.60
2009,08,16,14,40,25.60
2009,08,16,14,41,25.40
2009,08,16,14,42,25.20
2009,08,16,14,43,25.10
2009,08,16,14,44,25.10
2009,08,16,14,45,25.10
2009,08,16,14,46,25.10
2009,08,16,14,47,25.10
2009,08,16,14,48,25.10
2009,08,16,14,49,25.10
2009,08,16,14,50,25.10
2009,08,16,14,51,25.20
2009,08,16,14,52,25.20
2009,08,16,14,53,25.30
2009,08,16,14,54,25.30
2009,08,16,14,55,25.30
2009,08,16,14,56,25.30
2009,08,16,14,57,25.30
2009,08,16,14,58,25.30
2009,08,16,14,59,25.30
2009,08,16,15,00,25.30
2009,08,16,15,01,25.40
2009,08,16,15,02,25.40
2009,08,16,15,03,25.50
2009,08,16,15,04,25.50
2009,08,16,15,05,25.50
2009,08,16,15,06,25.40
2009,08,16,15,07,25.40
2009,08,16,15,08,25.40
2009,08,16,15,09,25.40
2009,08,16,15,10,25.40
2009,08,16,15,11,25.50
2009,08,16,15,12,25.60
2009,08,16,15,13,25.70
2009,08,16,15,14,25.80
2009,08,16,15,15,25.80
2009,08,16,15,16,25.90
2009,08,16,15,17,25.90
2009,08,16,15,18,26.00
2009,08,16,15,19,26.00
2009,08,16,15,20,26.00
2009,08,16,15,21,26.00
2009,08,16,15,22,26.10
2009,08,16,15,23,26.10
2009,08,16,15,24,26.10
2009,08,16,15,25,26.00
2009,08,16,15,26,25.90
2009,08,16,15,27,25.90
2009,08,16,15,28,25.90
2009,08,16,15,29,25.90
2009,08,16,15,30,26.00
2009,08,16,15,31,26.00
2009,08,16,15,32,26.00
2009,08,16,15,33,26.00
2009,08,16,15,34,26.10
2009,08,16,15,35,26.20
2009,08,16,15,36,26.20
2009,08,16,15,37,26.30
2009,08,16,15,38,26.30
2009,08,16,15,39,26.30
2009,08,16,15,40,26.30
2009,08,16,15,41,26.30
2009,08,16,15,42,26.30
2009,08,16,15,43,26.30
2009,08,16,15,44,26.20
2009,08,16,15,45,26.10
2009,08,16,15,46,26.00
2009,08,16,15,47,25.90
2009,08,16,15,48,25.90
2009,08,16,15,49,25.90
2009,08,16,15,50,25.90
2009,08,16,15,51,25.90
2009,08,16,15,52,25.90
2009,08,16,15,53,25.90
2009,08,16,15,54,25.90
2009,08,16,15,55,25.90
2009,08,16,15,56,25.90
2009,08,16,15,57,25.90
2009,08,16,15,58,25.90
2009,08,16,15,59,25.90
2009,08,16,16,00,25.90
2009,08,16,16,01,25.90
2009,08,16,16,02,25.90
2009,08,16,16,03,25.90
2009,08,16,16,04,26.00
2009,08,16,16,05,26.00
2009,08,16,16,06,26.00
2009,08,16,16,07,26.00
2009,08,16,16,08,25.90
2009,08,16,16,09,25.90
2009,08,16,16,10,25.90
2009,08,16,16,11,25.90
2009,08,16,16,12,25.90
2009,08,16,16,13,25.90
2009,08,16,16,14,25.80
2009,08,16,16,15,25.80
2009,08,16,16,16,25.70
2009,08,16,16,17,25.70
2009,08,16,16,18,25.60
2009,08,16,16,19,25.60
2009,08,16,16,20,25.50
2009,08,16,16,21,25.40
2009,08,16,16,22,25.30
2009,08,16,16,23,25.20
2009,08,16,16,24,25.10
2009,08,16,16,25,25.10
2009,08,16,16,26,25.00
2009,08,16,16,27,24.90
2009,08,16,16,28,24.80
2009,08,16,16,29,24.80
2009,08,16,16,30,24.80
2009,08,16,16,31,24.80
2009,08,16,16,32,24.80
2009,08,16,16,33,24.80
2009,08,16,16,34,24.70
2009,08,16,16,35,24.70
2009,08,16,16,36,24.60
2009,08,16,16,37,24.60
2009,08,16,16,38,24.60
2009,08,16,16,39,24.60
2009,08,16,16,40,24.60
2009,08,16,16,41,24.70
2009,08,16,16,42,24.70
2009,08,16,16,43,24.70
2009,08,16,16,44,24.70
2009,08,16,16,45,24.80
2009,08,16,16,46,24.80
2009,08,16,16,47,24.90
2009,08,16,16,48,25.00
2009,08,16,16,49,25.10
2009,08,16,16,50,25.10
2009,08,16,16,51,25.20
2009,08,16,16,52,25.20
2009,08,16,16,53,25.30
2009,08,16,16,54,25.30
2009,08,16,16,55,25.30
2009,08,16,16,56,25.40
2009,08,16,16,57,25.30
2009,08,16,16,58,25.30
2009,08,16,16,59,25.30
2009,08,16,17,00,25.30
2009,08,16,17,01,25.30
2009,08,16,17,02,25.30
2009,08,16,17,03,25.30
2009,08,16,17,04,25.30
2009,08,16,17,05,25.40
2009,08,16,17,06,25.40
2009,08,16,17,07,25.50
2009,08,16,17,08,25.50
2009,08,16,17,09,25.60
2009,08,16,17,10,25.60
2009,08,16,17,11,25.70
2009,08,16,17,12,25.80
2009,08,16,17,13,25.80
2009,08,16,17,14,25.90
2009,08,16,17,15,25.90
2009,08,16,17,16,25.90
2009,08,16,17,17,26.00
2009,08,16,17,18,26.00
2009,08,16,17,19,26.00